TimeMDT,TemperatureF,Dew PointF,Humidity,Sea Level PressureIn,VisibilityMPH,Wind Direction,Wind SpeedMPH,Gust SpeedMPH,PrecipitationIn,Events,Conditions,WindDirDegrees,DateUTC
1:58 AM,65.3,51.1,60,29.99,10.0,NNW,5.8,-,N/A,,Overcast,330,2013-09-04 07:58:00
2:58 AM,65.7,50.0,57,30.28,10.0,North,5.8,-,N/A,,Overcast,360,2013-09-04 08:58:00
3:58 AM,67.6,49.3,52,30.28,10.0,Variable,2.3,-,N/A,,Mostly Cloudy,0,2013-09-04 09:58:00
4:58 AM,65.3,51.1,60,30.28,10.0,North,8.1,-,N/A,,Mostly Cloudy,350,2013-09-04 10:58:00
5:58 AM,64.9,50.2,59,30.02,10.0,North,8.1,-,N/A,,Scattered Clouds,350,2013-09-04 11:58:00
6:58 AM,65.7,51.6,60,30.02,10.0,North,4.6,-,N/A,,Scattered Clouds,360,2013-09-04 12:58:00
7:58 AM,65.7,52.0,61,30.06,10.0,North,5.8,-,N/A,,Clear,360,2013-09-04 13:58:00
8:58 AM,70.9,54.0,55,30.06,10.0,North,4.6,-,N/A,,Partly Cloudy,360,2013-09-04 14:58:00
9:58 AM,76.1,52.2,43,30.06,10.0,North,4.6,-,N/A,,Clear,350,2013-09-04 15:58:00
10:58 AM,79.5,48.2,33,30.05,10.0,NNE,1.2,-,N/A,,Scattered Clouds,20,2013-09-04 16:58:00
11:58 AM,84.4,48.0,28,30.04,10.0,Variable,1.2,-,N/A,,Partly Cloudy,0,2013-09-04 17:58:00
12:58 PM,82.0,48.2,31,30.04,10.0,Calm,Calm,-,N/A,,Scattered Clouds,0,2013-09-04 18:58:00
1:58 PM,81.3,49.8,33,30.04,10.0,South,5.8,-,N/A,,Partly Cloudy,190,2013-09-04 19:58:00
2:58 PM,81.3,50.7,34,30.03,10.0,SSW,5.8,-,N/A,,Partly Cloudy,210,2013-09-04 20:58:00
3:58 PM,82.8,49.3,31,30.01,10.0,Variable,3.5,-,N/A,,Scattered Clouds,0,2013-09-04 21:58:00
4:58 PM,84.0,48.0,28,30.01,10.0,North,4.6,-,N/A,,Clear,10,2013-09-04 22:58:00
5:58 PM,80.8,54.3,40,30.02,10.0,North,3.5,-,N/A,,Partly Cloudy,10,2013-09-04 23:58:00
6:58 PM,77.5,51.8,41,30.06,10.0,North,20.7,24.2,N/A,,Partly Cloudy,10,2013-09-05 00:58:00
7:58 PM,72.3,50.7,46,30.09,10.0,North,10.4,-,N/A,,Clear,360,2013-09-05 01:58:00
8:58 PM,71.8,48.6,44,30.09,10.0,Variable,3.5,-,N/A,,Clear,0,2013-09-05 02:58:00
9:58 PM,70.0,50.0,49,30.08,10.0,NNW,5.8,-,N/A,,Clear,330,2013-09-05 03:58:00
10:58 PM,65.5,50.7,59,30.06,10.0,NNE,6.9,-,N/A,,Clear,30,2013-09-05 04:58:00
11:58 PM,64.8,50.7,60,30.04,10.0,NE,9.2,-,N/A,,Clear,50,2013-09-05 05:58:00